Terminal Aerodrome Forecast
Issued by NWS Missoula, MT

Home | Current Version | Previous Version | Text Only | Print | Product List | Glossary On
Versions: 1 2 3 4 5 6 7 8 9 10 11 12
000
FTUS45 KMSO 192321
TAFBTM
TAF
KBTM 192321Z 2000/2024 35010KT P6SM BKN080
     FM200300 VRB04KT P6SM SKC
     FM202100 32008KT P6SM FEW080=

USA.gov is the U.S. government's official web portal to all federal, state and local government web resources and services.